Regional Weather Roundup
Issued by NWS

Home | Current Version | Previous Version | Text Only | Print | Product List | Glossary Off
Versions: 1 2 3 4 5 6 7 8 9 10 11 12 13 14 15 16 17 18 19 20 21 22 23 24 25 26 27 28 29 30 31 32 33 34 35 36 37 38 39 40 41 42 43 44 45 46 47 48 49 50

000
ASUS43 KMKX 220721
RWRWI

WISCONSIN REGIONAL WEATHER ROUNDUP
NATIONAL WEATHER SERVICE MILWAUKEE/SULLIVAN WI
200 AM CDT TUE JUL 22 2014

NOTE: "FAIR" INDICATES FEW OR NO CLOUDS BELOW 12,000 FEET WITH NO
SIGNIFICANT WEATHER AND/OR OBSTRUCTIONS TO VISIBILITY.

WIZ001-002-006>008-014>016-023>028-220800-
NORTHWEST WISCONSIN

CITY           SKY/WX    TMP DP  RH WIND       PRES   REMARKS
SUPERIOR ARPT  LGT RAIN  68  65  91 SW12G23   29.82R
ASHLAND        CLOUDY    79  70  74 SW10      29.85R HX  82
HAYWARD        CLOUDY    79  71  76 SW12      29.88R HX  82
SIREN          CLOUDY    80  71  74 S9        29.80F HX  83
RICE LAKE      CLOUDY    76  69  78 S10       29.86S
LADYSMITH      LGT RAIN  76  69  78 S8G17     29.89S
EAU CLAIRE     CLOUDY    79  70  74 S14       29.85F HX  82
MENOMONIE      CLOUDY    80  71  74 SE14      29.85F HX  83
NEW RICHMOND   CLOUDY    78  71  77 S15       29.82F HX  81
OSCEOLA        MOCLDY    80  73  80 S13       29.82F HX  84
$$

WIZ003>005-009-010-017-018-220800-
NORTH CENTRAL WISCONSIN

CITY           SKY/WX    TMP DP  RH WIND       PRES   REMARKS
WOODRUFF       PTCLDY    74  68  80 S10       29.91F
RHINELANDER    MOCLDY    73  66  78 SW8       29.95S
EAGLE RIVER    PTCLDY    72  65  78 S7        29.93S
LAND O LAKES   CLEAR     73  67  80 S8        29.93S
PHILLIPS       CLOUDY    73  68  83 SW6       29.89R
TOMAHAWK       PTCLDY    72  66  83 S6        29.92F
MEDFORD        MOCLDY    73  67  82 S14       29.93F
MERRILL        MOCLDY    74  68  83 S8        29.94R
$$

WIZ029-030-035-036-043>047-220800-
CENTRAL WISCONSIN

CITY           SKY/WX    TMP DP  RH WIND       PRES   REMARKS
WAUSAU         MOCLDY    74  68  81 S10       29.93F
MOSINEE        PTCLDY    72  68  88 S10       29.96F
MARSHFIELD     MOCLDY    73  68  84 S10       29.94F
STEVENS POINT  PTCLDY    72  66  83 S9        29.96F
WAUPACA        PTCLDY    73  69  86 S7        29.96F
WAUTOMA        PTCLDY    73  69  87 S9        29.97F
WISC RAPIDS    PTCLDY    74  68  81 S9        29.96F
CAMP DOUGLAS   MOCLDY    76  71  84 S8        29.95F
$$

WIZ011>013-019>022-031-037>040-048>050-220800-
NORTHEAST WISCONSIN

CITY           SKY/WX    TMP DP  RH WIND       PRES   REMARKS
ANTIGO         CLEAR     70  67  91 S10G17    29.96F
STURGEON BAY   CLEAR     68  61  77 S9        29.98S
GREEN BAY      CLEAR     71  65  81 S8        29.97F
MANITOWOC      CLEAR     64  61  90 CALM      30.00F
APPLETON       PTCLDY    73  66  78 S13       29.97F
CLINTONVILLE   PTCLDY    72  68  88 S8        29.94F
OSHKOSH        MOCLDY    73  68  84 S13       29.98F
$$

WIZ032>034-041-042-053>061-220800-
SOUTHWEST WISCONSIN

CITY           SKY/WX    TMP DP  RH WIND       PRES   REMARKS
LA CROSSE      CLOUDY    80  69  69 S12       29.90F HX  83
SPARTA         CLOUDY    77  66  69 S15       29.93F
VIROQUA        PTSUNNY   75  68  78 S7        29.96F
BOSCOBEL       CLOUDY    78  68  71 VRB7      29.96F HX  80
PRAIRIE DU CHI PTCLDY    78  66  67 SE6       29.94F HX  80
PLATTEVILLE    FAIR      73  69  87 S10       30.01F
$$

WIZ056-057-062-063-064-067-068-220800-
SOUTH CENTRAL WISCONSIN

CITY           SKY/WX    TMP DP  RH WIND       PRES   REMARKS
BARABOO/DELLS  CLEAR     74  66  77 S9        29.98F
LONE ROCK      CLEAR     79  69  71 S6        29.97F HX  81
WATERTOWN      PTCLDY    71  67  88 S6        30.01S
MADISON        PTCLDY    75  68  78 S9        30.01S
MIDDLETON      FAIR      75  68  79 S5        30.01S
MONROE         CLEAR     72  68  88 S12       30.02S
JANESVILLE     MOCLDY    73  64  73 S10       30.01F
$$

WIZ051-052-058>065-066-070>072-220800-
SOUTHEAST WISCONSIN

CITY           SKY/WX    TMP DP  RH WIND       PRES   REMARKS
MILWAUKEE      PTCLDY    73  65  75 S9        30.02F
WAUKESHA       CLEAR     68  63  83 S6        30.04F
MILWAUKEE/TIMM CLEAR     72  63  73 S6        30.03F
RACINE         CLEAR     71  65  81 SW7       30.06R
BURLINGTON     CLEAR     67  64  91 S3        30.04F
KENOSHA        CLEAR     70  65  84 S6        30.05S
FOND DU LAC    PTCLDY    74  67  78 S12       30.00F
SHEBOYGAN      CLEAR     68  64  87 S6        30.01F
WEST BEND      CLEAR     70  63  78 S6        30.02F
JUNEAU         MOCLDY    71  53  51 S10       30.03S
$$

LSZ147-162-220800-
LAKE SUPERIOR

STATION/POSITION TIME  TEMP    WIND        PRES    WAVE
                       AIR SEA DIR/SP/G            HT/PER
                 (UTC) (F)     (DEG/KT/KT) (MB)    (FT/S)
W MID LAKE BUOY  0650   52 40  150/ 14/ 14 1008.5F   1
PORT WING        0700          260/ 24     1012.2R
SAXON HARBOR     0600          190/  7/ 15 1009.5F
$$

LMZ867-665-643>646-220800-
LAKE MICHIGAN

STATION/POSITION TIME  TEMP    WIND        PRES    WAVE
                       AIR SEA DIR/SP/G            HT/PER
                 (UTC) (F)     (DEG/KT/KT) (MB)    (FT/S)
N MID LAKE BUOY  0650   62 56  190/ 12/ 14 1014.4F   2/ 5
NORTHPORT PIER   0600   68     170/  6/ 12 1015.2F
KEWAUNEE LAKESHO 0700   58     180/  7/  9 1015.8F
SHEBOYGAN LAKESH 0700   68     190/  9/  9 1016.1F
PORT WASHINGTON  0640   62     200/  7/ 10 1016.9S
ATWATER BUOY     0700   58     160/  6     1017.6F
MILWAUKEE LAKESH 0700   73     200/ 10/ 12   N/A
S MID LAKE BUOY  0650   71 69  190/ 10/ 10 1017.4S   1
KENOSHA   LAKESH 0700   72     200/  5/  7   N/A
$$

TC  - TEMPERATURE IN CELSIUS
VSB - VISIBILITY IN STATUTE MILES
WCI - WIND CHILL INDEX
HX  - HEAT INDEX




USA.gov is the U.S. government's official web portal to all federal, state and local government web resources and services.